Henderson, KY

1:52 PM CST on November 13, 2019 (GMT -0600)
Henderson City-County

Weather History for KEHR - September, 2019

Change the Weather History Date:

Thursday, September 26, 2019

  Actual Average Record
Temperature  
Mean Temperature 67 °F -  
Max Temperature 79 °F 77 °F 93 °F (1998)
Min Temperature 55 °F 54 °F 33 °F (2001)
Cooling Degree Days 2    
Growing Degree Days 17 (Base 50)    
Moisture  
Dew Point 54 °F    
Average Humidity 64    
Maximum Humidity 93    
Minimum Humidity 28    
Precipitation  
Precipitation 0.00 in - - ()
Sea Level Pressure  
Sea Level Pressure 29.95 in    
Wind  
Wind Speed 4 mph (NNW)    
Max Wind Speed 12 mph    
Max Gust Speed -    
Visibility 9 miles    
Events      
Averages and records for this station are not official NWS values.
T = Trace of Precipitation, MM = Missing Value Source: NWS Daily Summary

Daily Weather History Graph

Daily Weather History Graph

Search for Another Location

Airport or City:

Astronomy

Sep. 26, 2019 Rise Set
Actual Time 6:41 AM CDT 6:41 PM CDT
Civil Twilight 6:15 AM CDT 7:07 PM CDT
Nautical Twilight 5:45 AM CDT 7:38 PM CDT
Astronomical Twilight 5:14 AM CDT 8:09 PM CDT
Moon 3:52 AM CDT (9/26) 5:51 PM CDT (9/26)
Length of Visible Light 12h 52m
Length of Day
12h 00m
Waning Crescent, 6% of the Moon is Illuminated
Sep 26
Waning Crescent
Sep 28
New
Oct 5
First Quarter
Oct 13
Full
Oct 21
Last Quarter

Hourly Weather History & Observations

Time (CDT) Temp. Dew Point Humidity Pressure Visibility Wind Dir Wind Speed Gust Speed Precip Events Conditions
12:13 AM 69.8 °F 66.2 °F 88% 29.86 in 10.0 mi Calm Calm - N/A   Mostly Cloudy
12:56 AM 72.0 °F 68.0 °F 87% 29.85 in 10.0 mi WNW 4.6 mph - N/A   Overcast
1:30 AM 71.6 °F 68.0 °F 88% 29.87 in 10.0 mi West 3.5 mph - N/A   Scattered Clouds
1:56 AM 70.0 °F 68.0 °F 93% 29.87 in 10.0 mi WSW 4.6 mph - N/A   Partly Cloudy
2:56 AM 70.0 °F 68.0 °F 93% 29.86 in 10.0 mi Calm Calm - N/A   Scattered Clouds
3:56 AM 70.0 °F 66.9 °F 90% 29.87 in 10.0 mi NNW 5.8 mph - N/A   Clear
4:56 AM 71.1 °F 62.1 °F 73% 29.90 in 10.0 mi North 5.8 mph - N/A   Overcast
5:56 AM 69.1 °F 57.0 °F 65% 29.93 in 10.0 mi NNE 8.1 mph - N/A   Clear
6:56 AM 68.0 °F 55.0 °F 63% 29.95 in 10.0 mi North 5.8 mph - N/A   Scattered Clouds
7:56 AM 68.0 °F 54.0 °F 61% 29.97 in 10.0 mi North 5.8 mph - N/A   Mostly Cloudy
8:56 AM 66.0 °F 57.0 °F 73% 30.00 in 10.0 mi NW 4.6 mph - 0.00 in   Mostly Cloudy
9:56 AM 69.1 °F 55.0 °F 61% 30.01 in 10.0 mi North 5.8 mph - N/A   Clear
10:56 AM 72.0 °F 54.0 °F 53% 30.03 in 10.0 mi NW 9.2 mph - N/A   Clear
11:56 AM 73.0 °F 54.0 °F 51% 30.02 in 10.0 mi North 11.5 mph - N/A   Clear
12:56 PM 73.0 °F 52.0 °F 48% 30.00 in 10.0 mi North 9.2 mph - N/A   Clear
1:56 PM 77.0 °F 48.9 °F 37% 29.98 in 10.0 mi North 8.1 mph - N/A   Clear
2:56 PM 79.0 °F 44.1 °F 29% 29.97 in 10.0 mi Variable 3.5 mph - N/A   Clear
3:56 PM 79.0 °F 43.0 °F 28% 29.96 in 10.0 mi North 5.8 mph - N/A   Clear
4:56 PM 79.0 °F 43.0 °F 28% 29.96 in 10.0 mi NNE 4.6 mph - N/A   Clear
5:56 PM 75.9 °F 45.0 °F 33% 29.96 in 10.0 mi North 4.6 mph - N/A   Clear
6:47 PM 68.0 °F 50.0 °F 52% 29.96 in 1.8 mi Calm Calm - N/A   Haze
6:50 PM 66.2 °F 50.0 °F 56% 29.96 in 0.8 mi Calm Calm - N/A   Haze
6:56 PM 64.9 °F 50.0 °F 58% 29.96 in 0.8 mi Calm Calm - N/A   Haze
6:58 PM 64.4 °F 50.0 °F 59% 29.96 in 1.2 mi Calm Calm - N/A   Haze
7:06 PM 64.4 °F 51.8 °F 64% 29.96 in 3.0 mi Calm Calm - N/A   Haze
7:56 PM 60.1 °F 51.1 °F 72% 29.96 in 10.0 mi Calm Calm - N/A   Clear
8:56 PM 57.0 °F 50.0 °F 77% 29.97 in 10.0 mi Calm Calm - N/A   Clear
9:56 PM 55.0 °F 50.0 °F 83% 29.98 in 10.0 mi Calm Calm - N/A   Clear
10:56 PM 55.0 °F 50.0 °F 83% 29.98 in 10.0 mi Calm Calm - N/A   Clear
11:56 PM 55.0 °F 51.1 °F 86% 29.97 in 10.0 mi East 3.5 mph - N/A   Clear